Location: 5810 Zion Rd, Cleves, OH 45002, USA
(39.1922°N, 84.7113°W)
Time: 01:01:31
(UTC-05:00)

Courier 1B Rocket - Pass Details

Date: 13 December 2019
Orbit: 920 x 1202 km, 28.2° (Epoch: 28 January)

Event Time Altitude Azimuth Distance (km) Brightness Sun altitude
Rises 05:25:43 0° 229° (SW) 3,964 - -27.0°
Reaches altitude 10° 05:29:07 10° 216° (SW) 2,959 - -26.4°
Exits shadow 05:30:13 14° 210° (SSW) 2,677 7.1 -26.2°
Maximum altitude 05:34:43 24° 165° (SSE) 2,014 6.8 -25.3°
Drops below altitude 10° 05:40:03 10° 114° (ESE) 2,797 8.4 -24.3°
Sets 05:43:10 0° 101° (E) 3,701 9.5 -23.7°
